Location: Unspecified
(0.0000°N, 0.0000°E)
Time: 23:00:38
(UTC+00:00)

A-11 Canister half - All Passes

Search period start: 27 July 2016 00:00
Search period end: 06 August 2016 00:00
Orbit: 1525 x 1684 km, 47.3° (Epoch: 27 July)

Date Brightness Start Highest point End Pass type
(mag) Time Alt. Az. Time Alt. Az. Time Alt. Az.
27 Jul - 00:41:46 10° SW 00:51:49 76° SE 01:01:58 10° NE visible
27 Jul - 02:49:28 10° W 02:57:00 24° NW 03:04:36 10° N visible
27 Jul - 11:30:43 10° N 11:38:50 32° NE 11:46:47 10° ESE daylight
27 Jul - 13:34:38 10° NW 13:43:38 52° SW 13:52:37 10° SSE daylight
27 Jul - 22:20:40 10° SSE 22:24:42 13° SE 22:28:45 10° ESE night (unlit)
28 Jul - 00:20:14 10° SSW 00:30:13 71° SE 00:40:20 10° NE visible
28 Jul - 02:27:32 10° W 02:35:21 25° NW 02:43:15 10° N visible
28 Jul - 11:09:20 10° N 11:17:14 30° NE 11:24:59 10° ESE daylight
28 Jul - 13:12:58 10° NW 13:22:05 56° SW 13:31:08 10° SSE daylight
28 Jul - 21:59:58 10° SSE 22:03:01 12° SE 22:06:05 10° ESE night (unlit)
28 Jul - 23:58:42 10° SSW 00:08:37 67° SE 00:18:39 10° NE visible
29 Jul - 02:05:37 10° WSW 02:13:43 27° NW 02:21:54 10° N visible
29 Jul - 10:47:57 10° N 10:55:38 28° NE 11:03:11 10° ESE daylight
29 Jul - 12:51:19 10° NW 13:00:31 61° SW 13:09:39 10° SSE daylight
29 Jul - 21:39:54 10° SE 21:41:20 10° SE 21:42:47 10° SE night (unlit)
29 Jul - 23:37:10 10° SSW 23:47:01 62° SE 23:56:59 10° NE night (unlit)
30 Jul - 01:43:45 10° WSW 01:52:05 29° NW 02:00:30 10° N visible
30 Jul - 10:26:35 10° N 10:34:03 26° NE 10:41:20 10° E daylight
30 Jul - 12:29:39 10° NW 12:38:57 65° SW 12:48:09 10° SSE daylight
30 Jul - 14:43:48 10° SW 14:44:24 10° SW 14:45:00 10° SW daylight
30 Jul - 23:15:40 10° SSW 23:25:24 58° SE 23:35:18 10° NE night (unlit)
31 Jul - 01:21:54 10° WSW 01:30:27 32° NW 01:39:06 10° N visible
31 Jul - 10:05:14 10° N 10:12:26 24° NE 10:19:28 10° E daylight
31 Jul - 12:08:01 10° NW 12:17:24 70° SW 12:26:38 10° SSE daylight
31 Jul - 14:20:09 10° WSW 14:22:45 11° SW 14:25:22 10° SSW daylight
31 Jul - 22:54:10 10° SSW 23:03:48 54° SE 23:13:35 10° NE night (unlit)
01 Aug - 01:00:05 10° WSW 01:08:49 34° NW 01:17:40 10° NNE visible
01 Aug - 09:43:55 10° N 09:50:49 22° NE 09:57:34 10° E daylight
01 Aug - 11:46:23 10° NW 11:55:50 75° SW 12:05:07 10° SSE daylight
01 Aug - 13:57:31 10° WSW 14:01:06 13° SW 14:04:42 10° SSW daylight
01 Aug - 22:32:42 10° SSW 22:42:12 51° SE 22:51:52 10° ENE night (unlit)
02 Aug - 00:38:17 10° WSW 00:47:11 36° NW 00:56:14 10° NNE visible
02 Aug - 09:22:38 10° N 09:29:12 20° NE 09:35:38 10° E daylight
02 Aug - 11:24:46 10° NW 11:34:16 80° SW 11:43:36 10° SE daylight
02 Aug - 13:35:08 10° WSW 13:39:28 14° SW 13:43:49 10° SSW daylight
02 Aug - 22:11:14 10° SSW 22:20:36 47° SE 22:30:08 10° ENE night (unlit)
03 Aug - 00:16:30 10° WSW 00:25:34 39° NW 00:34:47 10° NNE visible
03 Aug - 09:01:22 10° N 09:07:34 19° NE 09:13:39 10° E daylight
03 Aug - 11:03:10 10° NW 11:12:43 85° SW 11:22:04 10° SE daylight
03 Aug - 13:12:53 10° W 13:17:50 15° SW 13:22:48 10° SSW daylight
03 Aug - 21:49:47 10° SSW 21:58:59 44° SE 22:08:22 10° ENE night (unlit)
03 Aug - 23:54:46 10° WSW 00:03:57 42° NW 00:13:19 10° NNE visible
04 Aug - 08:40:08 10° N 08:45:56 17° NE 08:51:38 10° E daylight
04 Aug - 10:41:34 10° NW 10:51:09 90° WNW 11:00:31 10° SE daylight
04 Aug - 12:50:44 10° W 12:56:13 17° SW 13:01:42 10° S daylight
04 Aug - 21:28:20 10° SSW 21:37:23 41° SE 21:46:37 10° ENE visible
04 Aug - 23:33:02 10° WSW 23:42:20 45° NW 23:51:50 10° NNE visible
05 Aug - 08:18:57 10° N 08:24:17 16° NE 08:29:32 10° E daylight
05 Aug - 10:19:58 10° NW 10:29:35 85° NE 10:38:57 10° SE daylight
05 Aug - 12:28:39 10° W 12:34:36 18° SW 12:40:32 10° S daylight
05 Aug - 21:06:55 10° SSW 21:15:46 38° SE 21:24:49 10° ENE visible
05 Aug - 23:11:19 10° WSW 23:20:43 48° NW 23:30:20 10° NNE night (unlit)
